Weather History for Monticello, AR

Change the Weather History Date:

Sunday, December 9, 2012

  Actual Average Record
Temperature  
Mean Temperature 66 °F -  
Max Temperature 73 °F 55 °F 79 °F (1952)
Min Temperature 60 °F 34 °F 19 °F (1974)
Cooling Degree Days 2    
Growing Degree Days 16 (Base 50)    
Moisture  
Dew Point 63 °F    
Average Humidity 87    
Maximum Humidity 94    
Minimum Humidity 73    
Precipitation  
Precipitation 0.13 in - - ()
Sea Level Pressure  
Sea Level Pressure 29.85 in    
Wind  
Wind Speed 9 mph (SSW)    
Max Wind Speed 14 mph    
Max Gust Speed 25 mph    
Visibility 9 miles    
Events Rain , Thunderstorm    
Averages and records for this station are not official NWS values.
T = Trace of Precipitation, MM = Missing Value Source: NWS Daily Summary

Daily Weather History Graph

Daily Weather History Graph

Search for Another Location

Airport:

Trip Planner

Search our weather history database for the weather conditions in past years. The results will help you decide how hot, cold, wet, or windy it might be!

Date:

Astronomy

Dec. 09, 2012 Rise Set
Actual Time 7:00 AM CST 4:58 PM CST
Civil Twilight 6:32 AM CST 5:26 PM CST
Nautical Twilight 6:01 AM CST 5:57 PM CST
Astronomical Twilight 5:31 AM CST 6:27 PM CST
Moon 2:42 AM CST (12/9) 1:58 PM CST (12/9)
Length of Visible Light 10h 53m
Length of Day
9h 58m
Waning Crescent, 18% of the Moon is Illuminated
Dec 9
Waning Crescent
Dec 13
New
Dec 19
First Quarter
Dec 28
Full
Jan 4
Last Quarter

Hourly Weather History & Observations

Time (CST) Temp. Dew Point Humidity Pressure Visibility Wind Dir Wind Speed Gust Speed Precip Events Conditions
12:53 AM 64.9 °F 62.1 °F 90% 29.87 in 10.0 mi South 8.1 mph - N/A   Mostly Cloudy
1:04 AM 64.4 °F 62.6 °F 94% 29.87 in 10.0 mi South 9.2 mph - N/A   Scattered Clouds
1:42 AM 64.4 °F 62.6 °F 94% 29.87 in 10.0 mi SSW 8.1 mph - N/A   Mostly Cloudy
1:53 AM 64.9 °F 62.1 °F 90% 29.87 in 10.0 mi South 6.9 mph - N/A   Overcast
2:31 AM 64.4 °F 62.6 °F 94% 29.87 in 10.0 mi South 6.9 mph - N/A   Mostly Cloudy
2:50 AM 64.4 °F 62.6 °F 94% 29.87 in 10.0 mi SSW 9.2 mph - N/A   Overcast
2:53 AM 64.9 °F 62.1 °F 90% 29.87 in 10.0 mi SSW 6.9 mph - N/A   Mostly Cloudy
3:03 AM 64.4 °F 62.6 °F 94% 29.87 in 10.0 mi SSW 6.9 mph - N/A   Overcast
3:14 AM 64.4 °F 62.6 °F 94% 29.87 in 10.0 mi SSW 5.8 mph - N/A   Mostly Cloudy
3:53 AM 64.9 °F 62.1 °F 90% 29.87 in 10.0 mi SSW 9.2 mph - N/A   Overcast
4:05 AM 64.4 °F 62.6 °F 94% 29.87 in 10.0 mi SSW 11.5 mph - N/A   Overcast
4:53 AM 66.0 °F 63.0 °F 90% 29.87 in 10.0 mi SSW 9.2 mph 19.6 mph N/A   Overcast
5:53 AM 66.0 °F 63.0 °F 90% 29.88 in 10.0 mi SSW 8.1 mph 19.6 mph N/A   Overcast
6:25 AM 66.2 °F 62.6 °F 88% 29.89 in 10.0 mi SSW 8.1 mph - N/A   Overcast
6:53 AM 64.9 °F 62.1 °F 90% 29.88 in 10.0 mi SSW 13.8 mph 20.7 mph N/A   Overcast
7:39 AM 64.4 °F 62.6 °F 94% 29.90 in 10.0 mi South 10.4 mph - N/A   Overcast
7:53 AM 64.9 °F 62.1 °F 90% 29.89 in 10.0 mi SSW 12.7 mph 18.4 mph N/A   Overcast
8:21 AM 64.4 °F 62.6 °F 94% 29.91 in 10.0 mi SSW 10.4 mph - N/A   Overcast
8:53 AM 64.9 °F 62.1 °F 90% 29.91 in 10.0 mi SSW 11.5 mph 20.7 mph N/A   Overcast
9:53 AM 66.9 °F 62.1 °F 84% 29.91 in 10.0 mi SSW 13.8 mph 23.0 mph N/A   Overcast
10:08 AM 68.0 °F 62.6 °F 83% 29.91 in 10.0 mi SSW 8.1 mph 23.0 mph N/A   Mostly Cloudy
10:41 AM 69.8 °F 62.6 °F 78% 29.89 in 10.0 mi SSW 10.4 mph 25.3 mph N/A   Scattered Clouds
10:53 AM 69.1 °F 63.0 °F 81% 29.89 in 10.0 mi South 9.2 mph - N/A   Scattered Clouds
11:26 AM 71.6 °F 62.6 °F 73% 29.88 in 10.0 mi SSW 11.5 mph 21.9 mph N/A   Mostly Cloudy
11:41 AM 69.8 °F 62.6 °F 78% 29.87 in 10.0 mi SSW 11.5 mph 20.7 mph N/A   Mostly Cloudy
11:53 AM 71.1 °F 62.1 °F 73% 29.86 in 10.0 mi SSW 13.8 mph 21.9 mph N/A   Scattered Clouds
12:17 PM 69.8 °F 62.6 °F 78% 29.86 in 10.0 mi SSW 8.1 mph 20.7 mph N/A   Mostly Cloudy
12:41 PM 69.8 °F 62.6 °F 78% 29.85 in 10.0 mi SSW 11.5 mph - N/A   Overcast
12:53 PM 71.1 °F 63.0 °F 75% 29.83 in 10.0 mi South 10.4 mph 18.4 mph N/A   Overcast
1:22 PM 71.6 °F 62.6 °F 73% 29.82 in 10.0 mi South 11.5 mph 19.6 mph N/A   Mostly Cloudy
1:53 PM 72.0 °F 63.0 °F 73% 29.81 in 10.0 mi South 10.4 mph 18.4 mph N/A   Mostly Cloudy
2:53 PM 73.0 °F 64.0 °F 73% 29.80 in 10.0 mi South 10.4 mph - N/A   Mostly Cloudy
3:53 PM 72.0 °F 64.0 °F 76% 29.80 in 10.0 mi South 5.8 mph - N/A   Scattered Clouds
4:53 PM 70.0 °F 64.9 °F 84% 29.80 in 10.0 mi South 9.2 mph - N/A   Clear
5:53 PM 69.1 °F 64.9 °F 87% 29.79 in 10.0 mi SSE 8.1 mph - N/A   Clear
6:53 PM 68.0 °F 64.9 °F 90% 29.79 in 10.0 mi South 5.8 mph - 0.00 in Rain Light Rain
7:53 PM 66.9 °F 64.9 °F 93% 29.77 in 10.0 mi SSE 5.8 mph - 0.00 in   Clear
8:53 PM 66.9 °F 64.9 °F 93% 29.78 in 8.0 mi South 3.5 mph - N/A   Clear
9:53 PM 68.0 °F 66.0 °F 93% 29.75 in 5.0 mi South 10.4 mph 18.4 mph 0.03 in Rain Rain
10:26 PM 68.0 °F 66.2 °F 94% 29.78 in 8.0 mi SW 12.7 mph - 0.02 in Rain , Thunderstorm Light Rain
10:37 PM 68.0 °F 66.2 °F 94% 29.81 in 7.0 mi West 11.5 mph 17.3 mph 0.02 in Rain , Thunderstorm Light Rain
10:46 PM 64.4 °F 60.8 °F 88% 29.81 in 10.0 mi WNW 5.8 mph - 0.02 in Thunderstorm Overcast
10:53 PM 63.0 °F 61.0 °F 93% 29.81 in 10.0 mi Calm Calm - 0.02 in Rain , Thunderstorm Light Rain
11:03 PM 62.6 °F 60.8 °F 94% 29.81 in 7.0 mi NNW 4.6 mph - 0.02 in Rain Light Rain
11:13 PM 62.6 °F 60.8 °F 94% 29.81 in 6.0 mi NNE 6.9 mph - 0.03 in Rain , Thunderstorm Rain
11:21 PM 62.6 °F 59.0 °F 88% 29.81 in 5.0 mi North 6.9 mph - 0.06 in Rain , Thunderstorm Rain
11:31 PM 60.8 °F 59.0 °F 94% 29.81 in 6.0 mi NE 4.6 mph - 0.07 in Rain Light Rain
11:53 PM 60.1 °F 57.0 °F 90% 29.82 in 7.0 mi NE 8.1 mph - 0.08 in Rain Light Rain